Ironwood, MI

11:13 AM CDT on March 26, 2017 (GMT -0500)
Gogebic-Iron County

Weather History for KIWD - December, 2014

Change the Weather History Date:

Wednesday, December 31, 2014

  Actual Average Record
Temperature  
Mean Temperature 0 °F -  
Max Temperature 10 °F 20 °F 44 °F (2004)
Min Temperature -7 °F 8 °F -11 °F (2013)
Degree Days  
Heating Degree Days 64    
Moisture  
Dew Point -4 °F    
Average Humidity 75    
Maximum Humidity 92    
Minimum Humidity 66    
Precipitation  
Precipitation 0.00 in - - ()
Sea Level Pressure  
Sea Level Pressure 29.96 in    
Wind  
Wind Speed 15 mph (SW)    
Max Wind Speed 23 mph    
Max Gust Speed 30 mph    
Visibility 10 miles    
Events      
Averages and records for this station are not official NWS values.
T = Trace of Precipitation, MM = Missing Value Source: NWS Daily Summary

Daily Weather History Graph

Daily Weather History Graph

Search for Another Location

Airport or City:

Trip Planner

Search our weather history database for the weather conditions in past years. The results will help you decide how hot, cold, wet, or windy it might be!

Date:

Astronomy

Dec. 31, 2014 Rise Set
Actual Time 7:44 AM CST 4:22 PM CST
Civil Twilight 7:09 AM CST 4:57 PM CST
Nautical Twilight 6:31 AM CST 5:36 PM CST
Astronomical Twilight 5:54 AM CST 6:12 PM CST
Moon 1:22 PM CST (12/31) 3:01 AM CST (12/31)
Length of Visible Light 9h 48m
Length of Day
8h 38m
Waxing Gibbous, 80% of the Moon is Illuminated
Dec 31
Waxing Gibbous
Jan 4
Full
Jan 13
Last Quarter
Jan 20
New
Jan 26
First Quarter

Hourly Weather History & Observations

Time (CST) Temp. Windchill Dew Point Humidity Pressure Visibility Wind Dir Wind Speed Gust Speed Precip Events Conditions
12:15 AM -5.8 °F -26.0 °F -9.4 °F 84% 30.34 in 10.0 mi WSW 13.8 mph - N/A   Clear
12:35 AM -5.8 °F -26.8 °F -9.4 °F 84% 30.33 in 10.0 mi WSW 15.0 mph 20.7 mph N/A   Clear
12:55 AM -5.8 °F -27.5 °F -11.2 °F 77% 30.32 in 10.0 mi WSW 16.1 mph - N/A   Clear
1:15 AM -5.8 °F -25.2 °F -11.2 °F 77% 30.31 in 10.0 mi WSW 12.7 mph - N/A   Clear
1:35 AM -5.8 °F -26.8 °F -11.2 °F 77% 30.31 in 10.0 mi WSW 15.0 mph - N/A   Clear
1:55 AM -5.8 °F -26.8 °F -7.6 °F 92% 30.30 in 10.0 mi WSW 15.0 mph - N/A   Clear
2:15 AM -5.8 °F -24.4 °F -11.2 °F 77% 30.29 in 10.0 mi SW 11.5 mph 18.4 mph N/A   Clear
2:35 AM -7.6 °F -26.6 °F -13.0 °F 77% 30.27 in 10.0 mi SW 11.5 mph - N/A   Clear
2:55 AM -7.6 °F -29.1 °F -11.2 °F 84% 30.25 in 10.0 mi SW 15.0 mph - N/A   Clear
3:15 AM -7.6 °F -28.3 °F -9.4 °F 92% 30.23 in 10.0 mi SW 13.8 mph - N/A   Clear
3:35 AM -7.6 °F -27.5 °F -14.8 °F 71% 30.21 in 10.0 mi SSW 12.7 mph - N/A   Clear
3:55 AM -7.6 °F -28.3 °F -9.4 °F 92% 30.20 in 10.0 mi SW 13.8 mph - N/A   Clear
4:15 AM -7.6 °F -26.6 °F - N/A% 30.19 in 10.0 mi SW 11.5 mph - N/A   Clear
4:35 AM -5.8 °F -26.8 °F -11.2 °F 77% 30.17 in 10.0 mi SW 15.0 mph 19.6 mph N/A   Clear
4:55 AM -5.8 °F -28.2 °F -13.0 °F 71% 30.16 in 10.0 mi SW 17.3 mph - N/A   Clear
5:15 AM -5.8 °F -25.2 °F -9.4 °F 84% 30.14 in 10.0 mi SW 12.7 mph - N/A   Clear
5:35 AM -5.8 °F -23.4 °F -13.0 °F 71% 30.13 in 10.0 mi SW 10.4 mph - N/A   Clear
5:55 AM -5.8 °F -26.0 °F -11.2 °F 77% 30.11 in 10.0 mi SW 13.8 mph 18.4 mph N/A   Clear
6:15 AM -5.8 °F -26.8 °F -11.2 °F 77% 30.09 in 10.0 mi SW 15.0 mph 20.7 mph N/A   Clear
6:35 AM -4.0 °F -26.4 °F -7.6 °F 85% 30.07 in 10.0 mi SW 18.4 mph 21.9 mph N/A   Clear
6:55 AM -2.2 °F -21.5 °F -7.6 °F 78% 30.06 in 10.0 mi SW 13.8 mph 24.2 mph N/A   Clear
7:15 AM -2.2 °F -25.2 °F -9.4 °F 71% 30.05 in 10.0 mi SW 20.7 mph 26.5 mph N/A   Partly Cloudy
7:35 AM -2.2 °F -24.1 °F -7.6 °F 78% 30.03 in 9.0 mi SW 18.4 mph 26.5 mph N/A   Mostly Cloudy
7:55 AM -0.4 °F -20.5 °F -7.6 °F 72% 30.01 in 8.0 mi SW 16.1 mph 23.0 mph N/A   Overcast
8:15 AM -0.4 °F -21.7 °F -7.6 °F 72% 30.01 in 9.0 mi SW 18.4 mph 24.2 mph N/A   Overcast
8:35 AM -0.4 °F -20.5 °F -5.8 °F 78% 29.99 in 9.0 mi SW 16.1 mph 26.5 mph N/A   Overcast
8:55 AM 1.4 °F -19.9 °F -7.6 °F 66% 29.98 in 5.0 mi SW 19.6 mph 29.9 mph N/A   Overcast
9:15 AM -0.4 °F -22.3 °F -7.6 °F 72% 29.97 in 5.0 mi SSW 19.6 mph 24.2 mph N/A   Overcast
9:35 AM -0.4 °F -21.2 °F -7.6 °F 72% 29.96 in 10.0 mi SW 17.3 mph - N/A   Mostly Cloudy
9:55 AM 3.2 °F -17.1 °F -2.2 °F 78% 29.94 in 10.0 mi SW 18.4 mph 23.0 mph N/A   Mostly Cloudy
10:15 AM 3.2 °F -16.5 °F -4.0 °F 72% 29.93 in 8.0 mi SW 17.3 mph 26.5 mph N/A   Mostly Cloudy
10:35 AM 5.0 °F -14.7 °F -2.2 °F 72% 29.92 in 10.0 mi SW 18.4 mph 23.0 mph N/A   Overcast
10:55 AM 5.0 °F -13.6 °F -4.0 °F 66% 29.91 in 8.0 mi SW 16.1 mph 25.3 mph N/A   Overcast
11:15 AM 5.0 °F -15.2 °F -4.0 °F 66% 29.90 in 10.0 mi WSW 19.6 mph 24.2 mph N/A   Overcast
11:35 AM 5.0 °F -14.2 °F -2.2 °F 72% 29.89 in 10.0 mi WSW 17.3 mph 27.6 mph N/A   Overcast
11:55 AM 5.0 °F -15.2 °F -4.0 °F 66% 29.88 in 10.0 mi SW 19.6 mph 26.5 mph N/A   Overcast
12:15 PM 5.0 °F -13.6 °F -2.2 °F 72% 29.87 in 10.0 mi SW 16.1 mph 20.7 mph N/A   Overcast
12:35 PM 6.8 °F -12.9 °F -0.4 °F 72% 29.85 in 10.0 mi WSW 19.6 mph 23.0 mph N/A   Overcast
12:55 PM 6.8 °F -11.3 °F -2.2 °F 67% 29.85 in 10.0 mi WSW 16.1 mph 24.2 mph N/A   Overcast
1:15 PM 6.8 °F -12.9 °F -2.2 °F 67% 29.84 in 9.0 mi WSW 19.6 mph 26.5 mph N/A   Mostly Cloudy
1:35 PM 6.8 °F -11.8 °F -0.4 °F 72% 29.84 in 8.0 mi WSW 17.3 mph 29.9 mph N/A   Scattered Clouds
1:55 PM 6.8 °F -13.4 °F -0.4 °F 72% 29.83 in 10.0 mi WSW 20.7 mph 27.6 mph N/A   Scattered Clouds
2:15 PM 8.6 °F -10.5 °F -0.4 °F 67% 29.84 in 10.0 mi WSW 19.6 mph 24.2 mph N/A   Scattered Clouds
2:35 PM 8.6 °F -11.0 °F -0.4 °F 67% 29.84 in 10.0 mi WSW 20.7 mph - N/A   Mostly Cloudy
2:55 PM 8.6 °F -11.9 °F -0.4 °F 67% 29.83 in 8.0 mi WSW 23.0 mph 28.8 mph N/A   Overcast
3:15 PM 8.6 °F -10.0 °F -0.4 °F 67% 29.82 in 10.0 mi WSW 18.4 mph 27.6 mph N/A   Overcast
3:35 PM 8.6 °F -8.3 °F -0.4 °F 67% 29.83 in 10.0 mi WSW 15.0 mph 25.3 mph N/A   Overcast
3:55 PM 8.6 °F -7.0 °F -0.4 °F 67% 29.82 in 10.0 mi SW 12.7 mph - N/A   Mostly Cloudy
4:15 PM 6.8 °F -9.3 °F -2.2 °F 67% 29.82 in 10.0 mi SW 12.7 mph 21.9 mph N/A   Partly Cloudy
4:35 PM 6.8 °F -8.6 °F -0.4 °F 72% 29.81 in 10.0 mi SW 11.5 mph - N/A   Clear
4:55 PM 6.8 °F -10.0 °F -2.2 °F 67% 29.81 in 10.0 mi SW 13.8 mph 19.6 mph N/A   Clear
5:15 PM 6.8 °F -9.3 °F -0.4 °F 72% 29.81 in 10.0 mi SW 12.7 mph 19.6 mph N/A   Clear
5:35 PM 6.8 °F -10.7 °F -0.4 °F 72% 29.80 in 10.0 mi SW 15.0 mph - N/A   Clear
5:55 PM 6.8 °F -10.0 °F -0.4 °F 72% 29.81 in 10.0 mi SW 13.8 mph 18.4 mph N/A   Clear
6:15 PM 6.8 °F -10.7 °F -0.4 °F 72% 29.80 in 10.0 mi SW 15.0 mph 21.9 mph N/A   Clear
6:35 PM 6.8 °F -11.3 °F -0.4 °F 72% 29.80 in 10.0 mi SW 16.1 mph - N/A   Clear
6:55 PM 6.8 °F -11.3 °F -0.4 °F 72% 29.80 in 10.0 mi SW 16.1 mph - N/A   Clear
7:15 PM 6.8 °F -12.4 °F -0.4 °F 72% 29.80 in 10.0 mi SW 18.4 mph 25.3 mph N/A   Clear
7:35 PM 6.8 °F -11.3 °F 1.4 °F 79% 29.80 in 10.0 mi WSW 16.1 mph - N/A   Clear
7:55 PM 6.8 °F -11.3 °F 1.4 °F 79% 29.80 in 10.0 mi SW 16.1 mph 21.9 mph N/A   Clear
8:15 PM 6.8 °F -11.3 °F 1.4 °F 79% 29.79 in 10.0 mi SW 16.1 mph 21.9 mph N/A   Clear
8:35 PM 8.6 °F -7.7 °F 1.4 °F 73% 29.79 in 10.0 mi WSW 13.8 mph - N/A   Clear
8:55 PM 8.6 °F -8.9 °F 1.4 °F 73% 29.79 in 10.0 mi WSW 16.1 mph 19.6 mph N/A   Clear
9:15 PM 8.6 °F -7.7 °F 1.4 °F 73% 29.79 in 10.0 mi WSW 13.8 mph 24.2 mph N/A   Clear
9:35 PM 8.6 °F -7.7 °F 1.4 °F 73% 29.78 in 10.0 mi WSW 13.8 mph - N/A   Clear
9:55 PM 8.6 °F -7.0 °F 3.2 °F 79% 29.79 in 10.0 mi WSW 12.7 mph 19.6 mph N/A   Clear
10:15 PM 8.6 °F -7.0 °F 3.2 °F 79% 29.79 in 10.0 mi WSW 12.7 mph 18.4 mph N/A   Mostly Cloudy
10:35 PM 8.6 °F -8.3 °F 3.2 °F 79% 29.78 in 10.0 mi WSW 15.0 mph 20.7 mph N/A   Overcast
10:55 PM 8.6 °F -8.3 °F 3.2 °F 79% 29.76 in 10.0 mi WSW 15.0 mph 23.0 mph N/A   Overcast
11:15 PM 8.6 °F -8.9 °F 3.2 °F 79% 29.76 in 10.0 mi WSW 16.1 mph - N/A   Overcast
11:35 PM 8.6 °F -7.7 °F 5.0 °F 85% 29.75 in 10.0 mi WSW 13.8 mph - N/A   Overcast
11:55 PM 10.4 °F -4.8 °F 5.0 °F 79% 29.74 in 10.0 mi SW 12.7 mph - N/A   Overcast